SCP
0 0 0 0 -0 0 0 0 0 0 0 0 0 0 0 0 -0 0 0 0 0 0 0 0 0 0 0 0 0 0 0 0
0 0 0 0 0 0 0 0 0 0 0 0 0 0 0 0 0 0 0 0 0 0 0 0 0 0 0 0 0 0 0 0
-0 0 0 0 1 1 1 0 0 0 0 0 0 0 0 0 0 0 0 0 0 0 0 0 0 0 0 0 0 0 0 0
0 0 1 1 1 1 1 1 1 0 0 0 0 0 0 0 0 0 0 0 0 0 0 0 0 0 0 0 0 0 0 0
1 1 1 1 1 1 1 1 1 1 0 0 0 0 0 0 0 0 0 0 0 0 0 0 0 0 0 0 0 0 0 0
2 1 2 2 1 1 1 2 2 1 0 0 0 0 0 0 0 0 0 0 0 0 0 0 0 0 0 0 0 0 0 0
2 2 2 2 1 1 1 1 1 1 1 0 0 0 0 0 0 0 0 0 0 0 0 0 0 0 0 0 0 0 0 0
1 1 1 1 1 1 1 2 1 1 1 1 0 0 0 0 0 0 0 0 0 0 0 0 0 0 0 0 0 0 0 0
1 1 1 1 1 1 1 1 1 1 1 0 0 0 0 0 0 0 0 0 0 0 0 0 0 0 0 0 0 0 0 0
1 1 1 1 1 1 1 1 1 0 0 0 0 0 0 0 0 0 0 0 0 0 0 0 0 0 0 0 0 0 0 0
0 1 1 1 1 0 0 0 0 0 0 0 0 0 0 0 0 0 0 0 0 0 0 0 0 0 0 0 0 0 0 0
0 0 0 0 0 0 0 0 0 0 0 0 0 0 0 0 0 0 0 0 0 0 0 0 0 0 0 0 0 0 0 0
0 0 -0 0 0 0 0 0 0 0 0 0 0 0 0 0 0 0 0 0 0 0 0 0 0 0 0 0 0 0 0 0
0 0 -0 0 0 0 0 0 0 0 0 0 0 0 0 0 0 0 0 0 0 0 0 0 0 0 0 0 0 0 0 0
-0 0 -0 0 0 0 0 0 0 0 0 0 0 0 0 0 0 0 0 0 0 0 0 0 0 0 0 0 0 0 0 0
-0 -0 -0 0 0 0 0 0 0 0 0 0 0 0 0 0 0 0 0 0 0 0 0 0 0 0 0 0 0 0 0 0
0 -0 0 0 0 -0 0 0 0 0 0 0 0 0 0 0 0 0 0 0 0 0 0 0 0 0 0 0 0 0 0 0
0 0 -0 0 0 0 0 0 0 0 0 0 0 0 0 0 0 0 0 0 0 0 0 0 0 0 0 0 0 0 0 0
0 -0 0 0 0 0 0 0 0 0 0 0 0 0 0 0 0 0 0 0 0 0 0 0 0 0 0 0 0 0 0 0
-0 0 0 0 0 0 0 0 0 0 0 0 0 0 0 0 0 0 0 0 0 0 0 0 0 0 0 0 0 0 0 0
Wind_Speed_500mb
53 54 48 60 52 49 38 34 25 16 20 21 11 22 21 23 25 19 10 7 4 5 9 4 5 14 9 21 16 22 30 27
55 45 49 52 42 46 38 30 29 26 24 16 12 22 22 18 13 16 10 21 18 18 16 13 14 18 19 23 31 34 36 35
44 41 52 58 43 39 30 27 34 29 29 29 23 30 29 24 21 27 30 27 27 23 26 22 24 26 31 36 38 33 32 35
42 29 59 55 51 38 25 35 33 34 40 38 24 43 39 40 32 30 27 25 30 30 28 29 29 33 37 32 23 32 32 31
54 40 43 44 44 39 28 41 39 41 40 48 35 49 46 38 32 32 32 36 37 33 28 31 34 25 16 20 23 29 30 38
39 38 37 37 37 30 32 36 33 32 34 40 40 41 39 36 36 38 35 27 27 23 22 24 14 12 16 24 28 32 37 45
36 38 39 34 30 28 28 29 30 25 31 32 42 40 42 38 33 24 18 15 14 12 11 9 10 11 20 26 35 44 52 46
44 42 34 30 28 31 33 30 30 28 25 26 32 35 31 23 15 19 15 13 14 6 1 4 10 20 30 38 43 37 42 44
50 41 42 37 35 31 29 28 28 20 24 26 24 21 17 14 12 12 8 5 11 10 15 19 23 27 34 30 34 40 38 28
45 50 42 37 31 27 26 25 24 22 22 23 19 20 14 10 13 8 15 12 13 18 25 25 30 22 21 25 32 33 32 27
45 42 40 35 26 26 21 29 28 25 21 21 24 21 18 16 13 21 20 14 17 25 25 18 22 20 17 20 26 30 29 25
53 51 48 33 32 30 28 31 30 26 22 19 18 16 15 19 13 15 4 15 17 22 20 20 29 25 18 17 20 26 21 27
36 31 40 34 41 38 38 31 25 23 22 20 22 16 19 17 13 5 6 3 13 17 21 23 34 29 16 17 17 19 20 27
36 35 47 35 34 36 33 27 27 22 18 17 19 21 26 29 23 12 11 2 15 18 18 26 36 26 19 15 18 18 18 31
32 54 47 36 37 39 33 28 29 24 16 18 17 14 14 12 13 8 10 8 5 10 21 33 32 23 19 17 17 17 21 30
66 65 48 40 41 42 38 37 34 22 17 12 17 14 6 3 8 12 16 15 9 16 27 32 30 22 20 20 19 20 23 28
51 60 50 48 39 39 41 39 29 22 16 11 9 7 1 15 13 14 19 22 23 27 30 22 25 24 21 19 22 26 26 26
55 39 55 46 39 45 44 29 19 24 13 11 14 7 9 16 25 25 12 17 18 18 17 23 28 26 24 23 26 30 26 27
43 23 54 57 57 49 26 13 23 25 17 19 16 10 7 15 22 21 17 17 20 21 20 23 26 32 27 26 32 32 30 28
35 25 39 39 32 32 25 21 20 14 23 24 18 20 17 17 28 20 13 19 21 21 22 24 29 34 32 31 36 33 32 34
Wind_Direction_500mb
178 186 186 189 193 182 194 180 176 185 178 176 197 177 175 171 161 153 129 152 176 285 332 353 310 321 295 337 340 322 318 315
192 192 182 185 172 176 180 176 170 182 179 169 173 180 181 192 186 169 187 204 211 209 241 292 287 287 303 307 299 305 317 299
193 200 188 184 169 162 176 182 182 183 182 186 207 189 194 197 203 202 211 224 229 234 240 255 263 280 285 292 291 309 317 311
178 158 172 179 172 165 175 183 175 178 179 196 212 194 188 198 218 224 226 257 237 275 254 267 277 294 300 307 307 314 312 314
172 170 162 180 183 181 200 180 192 200 209 216 210 194 204 219 228 228 259 277 249 286 257 275 299 316 342 338 307 294 294 295
170 171 179 171 181 193 206 218 208 225 222 214 209 212 216 225 237 258 270 261 275 258 278 300 318 356 318 292 292 294 297 303
173 171 182 182 183 196 209 216 227 218 216 225 222 221 229 246 260 247 240 271 298 298 320 330 6 307 286 288 297 303 306 311
170 171 169 170 184 191 194 201 212 224 224 211 206 215 227 240 240 212 236 273 259 77 350 176 250 272 282 289 296 314 318 319
160 169 184 188 193 201 209 212 211 210 178 182 182 197 206 204 198 221 196 123 138 202 254 257 275 296 299 306 315 320 327 338
160 168 179 200 204 195 188 196 187 159 155 151 162 160 167 165 161 172 139 151 211 253 271 284 297 309 298 310 321 330 344 3
216 171 178 186 187 173 174 162 155 160 153 163 165 169 170 168 164 159 169 221 291 295 306 309 345 326 309 323 329 347 346 358
200 173 186 186 176 165 172 171 162 156 160 162 173 168 170 165 155 161 224 277 304 309 332 336 343 331 315 329 350 350 2 1
177 200 196 165 167 170 186 185 165 157 168 163 173 179 161 169 168 205 227 296 282 289 312 328 335 326 322 328 353 3 6 352
178 216 200 164 169 180 186 179 161 151 157 158 162 157 159 149 143 147 116 252 233 264 301 320 327 319 319 323 342 346 352 351
237 211 175 161 178 181 185 169 143 142 143 153 162 151 150 159 193 192 228 258 211 260 307 316 319 320 324 326 327 340 324 328
209 186 174 166 175 172 164 145 138 147 143 118 131 139 150 241 277 279 260 249 271 300 301 305 316 321 325 325 320 323 317 320
322 175 174 172 173 167 150 140 144 149 150 104 131 52 284 283 292 315 226 232 251 279 286 309 323 323 324 326 318 321 323 310
330 191 161 160 165 153 149 143 135 148 190 159 182 199 289 339 333 330 280 275 288 313 320 320 329 331 326 319 311 316 321 319
26 59 134 140 135 148 147 168 158 165 190 184 183 187 225 299 323 320 278 281 297 307 313 310 310 326 322 304 302 315 317 323
157 135 127 133 152 169 171 177 179 177 190 202 207 220 250 301 323 328 294 272 285 290 295 297 298 308 313 309 307 308 309 308
Wind_Speed_850mb
53 54 48 60 52 49 38 34 25 16 20 21 11 22 21 23 25 19 10 7 4 5 9 4 5 14 9 21 16 22 30 27
55 45 49 52 42 46 38 30 29 26 24 16 12 22 22 18 13 16 10 21 18 18 16 13 14 18 19 23 31 34 36 35
44 41 52 58 43 39 30 27 34 29 29 29 23 30 29 24 21 27 30 27 27 23 26 22 24 26 31 36 38 33 32 35
42 29 59 55 51 38 25 35 33 34 40 38 24 43 39 40 32 30 27 25 30 30 28 29 29 33 37 32 23 32 32 31
54 40 43 44 44 39 28 41 39 41 40 48 35 49 46 38 32 32 32 36 37 33 28 31 34 25 16 20 23 29 30 38
39 38 37 37 37 30 32 36 33 32 34 40 40 41 39 36 36 38 35 27 27 23 22 24 14 12 16 24 28 32 37 45
36 38 39 34 30 28 28 29 30 25 31 32 42 40 42 38 33 24 18 15 14 12 11 9 10 11 20 26 35 44 52 46
44 42 34 30 28 31 33 30 30 28 25 26 32 35 31 23 15 19 15 13 14 6 1 4 10 20 30 38 43 37 42 44
50 41 42 37 35 31 29 28 28 20 24 26 24 21 17 14 12 12 8 5 11 10 15 19 23 27 34 30 34 40 38 28
45 50 42 37 31 27 26 25 24 22 22 23 19 20 14 10 13 8 15 12 13 18 25 25 30 22 21 25 32 33 32 27
45 42 40 35 26 26 21 29 28 25 21 21 24 21 18 16 13 21 20 14 17 25 25 18 22 20 17 20 26 30 29 25
53 51 48 33 32 30 28 31 30 26 22 19 18 16 15 19 13 15 4 15 17 22 20 20 29 25 18 17 20 26 21 27
36 31 40 34 41 38 38 31 25 23 22 20 22 16 19 17 13 5 6 3 13 17 21 23 34 29 16 17 17 19 20 27
36 35 47 35 34 36 33 27 27 22 18 17 19 21 26 29 23 12 11 2 15 18 18 26 36 26 19 15 18 18 18 31
32 54 47 36 37 39 33 28 29 24 16 18 17 14 14 12 13 8 10 8 5 10 21 33 32 23 19 17 17 17 21 30
66 65 48 40 41 42 38 37 34 22 17 12 17 14 6 3 8 12 16 15 9 16 27 32 30 22 20 20 19 20 23 28
51 60 50 48 39 39 41 39 29 22 16 11 9 7 1 15 13 14 19 22 23 27 30 22 25 24 21 19 22 26 26 26
55 39 55 46 39 45 44 29 19 24 13 11 14 7 9 16 25 25 12 17 18 18 17 23 28 26 24 23 26 30 26 27
43 23 54 57 57 49 26 13 23 25 17 19 16 10 7 15 22 21 17 17 20 21 20 23 26 32 27 26 32 32 30 28
35 25 39 39 32 32 25 21 20 14 23 24 18 20 17 17 28 20 13 19 21 21 22 24 29 34 32 31 36 33 32 34
Wind_Direction_850mb
178 186 186 189 193 182 194 180 176 185 178 176 197 177 175 171 161 153 129 152 176 285 332 353 310 321 295 337 340 322 318 315
192 192 182 185 172 176 180 176 170 182 179 169 173 180 181 192 186 169 187 204 211 209 241 292 287 287 303 307 299 305 317 299
193 200 188 184 169 162 176 182 182 183 182 186 207 189 194 197 203 202 211 224 229 234 240 255 263 280 285 292 291 309 317 311
178 158 172 179 172 165 175 183 175 178 179 196 212 194 188 198 218 224 226 257 237 275 254 267 277 294 300 307 307 314 312 314
172 170 162 180 183 181 200 180 192 200 209 216 210 194 204 219 228 228 259 277 249 286 257 275 299 316 342 338 307 294 294 295
170 171 179 171 181 193 206 218 208 225 222 214 209 212 216 225 237 258 270 261 275 258 278 300 318 356 318 292 292 294 297 303
173 171 182 182 183 196 209 216 227 218 216 225 222 221 229 246 260 247 240 271 298 298 320 330 6 307 286 288 297 303 306 311
170 171 169 170 184 191 194 201 212 224 224 211 206 215 227 240 240 212 236 273 259 77 350 176 250 272 282 289 296 314 318 319
160 169 184 188 193 201 209 212 211 210 178 182 182 197 206 204 198 221 196 123 138 202 254 257 275 296 299 306 315 320 327 338
160 168 179 200 204 195 188 196 187 159 155 151 162 160 167 165 161 172 139 151 211 253 271 284 297 309 298 310 321 330 344 3
216 171 178 186 187 173 174 162 155 160 153 163 165 169 170 168 164 159 169 221 291 295 306 309 345 326 309 323 329 347 346 358
200 173 186 186 176 165 172 171 162 156 160 162 173 168 170 165 155 161 224 277 304 309 332 336 343 331 315 329 350 350 2 1
177 200 196 165 167 170 186 185 165 157 168 163 173 179 161 169 168 205 227 296 282 289 312 328 335 326 322 328 353 3 6 352
178 216 200 164 169 180 186 179 161 151 157 158 162 157 159 149 143 147 116 252 233 264 301 320 327 319 319 323 342 346 352 351
237 211 175 161 178 181 185 169 143 142 143 153 162 151 150 159 193 192 228 258 211 260 307 316 319 320 324 326 327 340 324 328
209 186 174 166 175 172 164 145 138 147 143 118 131 139 150 241 277 279 260 249 271 300 301 305 316 321 325 325 320 323 317 320
322 175 174 172 173 167 150 140 144 149 150 104 131 52 284 283 292 315 226 232 251 279 286 309 323 323 324 326 318 321 323 310
330 191 161 160 165 153 149 143 135 148 190 159 182 199 289 339 333 330 280 275 288 313 320 320 329 331 326 319 311 316 321 319
26 59 134 140 135 148 147 168 158 165 190 184 183 187 225 299 323 320 278 281 297 307 313 310 310 326 322 304 302 315 317 323
157 135 127 133 152 169 171 177 179 177 190 202 207 220 250 301 323 328 294 272 285 290 295 297 298 308 313 309 307 308 309 308